Location: Stanford
(52.2833°N, 2.4333°W)
Time: 01:58:21
(UTC+00:00)

Cosmos 1844 Rocket - Pass Details

Date: 22 January 2021
Orbit: 825 x 843 km, 71.0° (Epoch: 24 February)

Event Time Altitude Azimuth Distance (km) Brightness Sun altitude
Rises 17:35:01 0° 174° (S) 3,388 6.0 -8.5°
Reaches altitude 10° 17:37:43 10° 163° (SSE) 2,457 5.2 -8.9°
Maximum altitude 17:42:30 29° 105° (ESE) 1,499 3.6 -9.6°
Enters shadow 17:47:11 10° 48° (NE) 2,433 4.5 -10.3°
